[[{"header":{"parameterUnit":"m.s-1","parameterCategory":2,"la1":30.2991,"la2":30.254,"lo1":-89.0895,"lo2":-89.0444,"dy":0.0017,"dx":0.0017,"nx":28,"ny":28,"refTime":"2025-07-02T21:00:00:Z","depth":"0","parameterNumber":2,"parameterNumberName":"U-component_of_CURRENTS"},"data":[0,0,0,0,0,0,0,0,0,0,0,0,0,0,0,0,0,0,0,0,0,0,0,0,0,0,0,0,0,0,0,0,0,0,0,0,0,0,0,0,0,0,0,0,0,0,0,0,0,0,0,0,0,0,0,0,0,0,0.2778,0.2779,0,0.282,0.2821,0.2821,0.2807,0.2806,0.2805,0.2805,0.2834,0.2835,0.2837,0,0,0,0,0,0,0,0,0,0,0,0,0,0.267,0.2672,0.2778,0.2779,0.2779,0.282,0.2821,0.2821,0.2807,0.2806,0.2805,0.2804,0.2833,0.2835,0.2837,0,0,0,0,0,0,0,0,0,0,0,0,0,0.2713,0.2673,0.2778,0.2778,0.2779,0.282,0.2821,0.2821,0.2807,0.2806,0.2805,0.2804,0.2833,0.2835,0.2837,0.2874,0,0,0.2844,0.2845,0,0,0,0,0,0,0,0,0.2711,0.2717,0.2778,0.2778,0.2779,0.2809,0.2793,0.2839,0.2808,0.2795,0.2805,0.2803,0.2826,0.2829,0.2837,0.2875,0.2877,0.2844,0.2845,0.2846,0.2847,0,0,0,0,0,0,0,0.2708,0.2715,0.2793,0.2779,0.278,0.2771,0.2776,0.2802,0.2815,0.2796,0.2795,0.2803,0.2826,0.2835,0.2838,0.2877,0.2844,0.2846,0.2847,0.2848,0.2992,0.2994,0,0,0,0,0,0,0.2709,0.2713,0.2792,0.2795,0.2743,0.2775,0.278,0.2799,0.2815,0.2817,0.2804,0.2802,0.2832,0.2835,0.2839,0.2914,0.2846,0.2848,0.285,0.2989,0.2992,0.2995,0,0,0,0,0,0,0.2706,0.2716,0.279,0.2755,0.2764,0.2778,0.2799,0.28,0.281,0.2822,0.2822,0.2813,0.2831,0.2835,0.2875,0.2913,0.2849,0.2851,0.2986,0.299,0.2994,0.3044,0,0,0,0,0,0,0.2703,0.2715,0.273,0.2756,0.2766,0.2822,0.2801,0.2802,0.2818,0.2816,0.283,0.2831,0.283,0.2872,0.2877,0.2915,0.2853,0.2983,0.2988,0.2993,0.3039,0.3049,0.3057,0,0,0,0,0,0.2699,0.2737,0.2731,0.2741,0.2787,0.2823,0.2828,0.2832,0.2819,0.2834,0.2847,0.283,0.2905,0.2876,0.2881,0.2921,0.2981,0.2987,0.2992,0.3035,0.3047,0.3057,0,0,0,0,0,0,0.2703,0.274,0.2734,0.2781,0.2799,0.2821,0.2839,0.2839,0.286,0.2858,0.2858,0.2862,0.2916,0.2916,0.2883,0.2979,0.2943,0.295,0.2974,0.2985,0.2994,0.299,0.2855,0,0,0,0,0,0.271,0.2747,0.2768,0.2806,0.2813,0.2823,0.2838,0.2843,0.2864,0.2871,0.2879,0.2903,0.2947,0.296,0.2992,0.3038,0.3072,0.3071,0.308,0.3087,0.3091,0.3184,0.3202,0.3013,0.3013,0.3013,0,0,0.2723,0.2748,0.2769,0.2808,0.2819,0.2842,0.2829,0.286,0.2883,0.2874,0.2908,0.2936,0.2969,0.3026,0.305,0.3026,0.3165,0.3095,0.31,0.31,0.3192,0.321,0.3226,0.3017,0.3016,0.3016,0,0,0.2768,0.2785,0.2823,0.2835,0.2859,0.2869,0.2877,0.2899,0.291,0.2952,0.2962,0.3012,0.3054,0.3093,0.3118,0.3199,0.3215,0.3211,0.3245,0.3336,0.3352,0.3366,0.3451,0.3473,0.3208,0.3208,0.3209,0,0.2781,0.2823,0.2839,0.2866,0.2875,0.2879,0.2904,0.2927,0.296,0.2979,0.2968,0.307,0.3091,0.318,0.3209,0.3219,0.327,0.3196,0.3347,0.3362,0.3376,0.3459,0.3482,0.3212,0.3211,0.3211,0.3211,0,0.2849,0.2864,0.2886,0.2917,0.2934,0.2959,0.2978,0.3002,0.3011,0.3032,0.3111,0.3156,0.3211,0.3239,0.3247,0.3362,0.3369,0.3352,0.3314,0.3398,0.3481,0.3504,0.3216,0.3215,0.3214,0.3213,0,0,0.2915,0.2929,0.2932,0.2924,0.2955,0.2971,0.3018,0.3057,0.3083,0.3132,0.3182,0.3276,0.3291,0.3323,0.3353,0.343,0.3578,0.3432,0.3436,0.3507,0.379,0.3704,0.3721,0.359,0.3594,0.3597,0.3814,0,0.2954,0.2983,0.2996,0.3013,0.3015,0.3026,0.3062,0.31,0.3133,0.3182,0.3253,0.3311,0.3327,0.3357,0.3447,0.3543,0.3639,0.3522,0.3706,0.3711,0.3617,0.3744,0.3535,0.3702,0.3837,0.3841,0.3843,0,0.3018,0.3013,0.303,0.302,0.3026,0.3045,0.3081,0.3115,0.3191,0.3217,0.3296,0.3342,0.3472,0.3459,0.369,0.3617,0.3714,0.3786,0.3796,0.371,0.3668,0.3639,0.3739,0.3597,0.3879,0.3876,0.3873,0,0.3031,0.304,0.3041,0.3039,0.3042,0.3055,0.3068,0.3125,0.3146,0.3237,0.3263,0.3418,0.3481,0.3646,0.3776,0.3759,0.4011,0.4003,0.4028,0.4023,0.3876,0.385,0.3845,0.4179,0.4179,0.4178,0.4178,0,0.3066,0.3061,0.3036,0.3027,0.3022,0.3039,0.3059,0.3091,0.3147,0.3176,0.3274,0.3335,0.353,0.3674,0.3815,0.3985,0.4052,0.4067,0.4084,0.3888,0.3862,0.3753,0.3691,0.4186,0.4185,0.4183,0.4182,0,0.3081,0.3071,0.3047,0.3027,0.3021,0.3012,0.3016,0.3031,0.3088,0.3134,0.3161,0.3306,0.3492,0.3668,0.3927,0.4008,0.4065,0.4221,0.3968,0.395,0.3832,0.3782,0.3735,0.3651,0.4327,0.4326,0.4326,0,0.3092,0.3085,0.3028,0.2989,0.2971,0.2958,0.2952,0.2995,0.3005,0.3113,0.3132,0.3305,0.3406,0.3729,0.3903,0.4137,0.4024,0.4069,0.3997,0.3819,0.3778,0.3651,0.3574,0.3846,0.3842,0.3838,0.3836,0,0.3089,0.3066,0.3022,0.2944,0.2908,0.2877,0.2868,0.2873,0.2934,0.2974,0.3059,0.315,0.3413,0.3533,0.378,0.3912,0.3822,0.4002,0.389,0.3466,0.3258,0.3183,0.3713,0.3803,0.3806,0.3809,0.381,0.3812,0.306,0.3022,0.2951,0.2874,0.2833,0.2787,0.2743,0.2752,0.2763,0.2781,0.2938,0.2982,0.3157,0.3477,0.3592,0.3589,0.3648,0.3517,0.3501,0.3413,0.3216,0.3667,0.3714,0.3717,0.3719,0.3721,0.3723,0,0.2992,0.2952,0.2883,0.2777,0.271,0.271,0.2672,0.2611,0.2587,0.2627,0.2675,0.2734,0.2837,0.3003,0.3118,0.3069,0.301,0.3001,0.2762,0.2743,0.321,0.3065,0.288,0.288,0.288,0.2881,0.2881,0.2881,0.2944,0.2861,0.282,0.2675,0.2609,0.2486,0.2444,0.2375,0.2352,0.2274,0.2241,0.2304,0.2487,0.2609,0.259,0.258,0.242,0.2314,0.2387,0.267,0.2715,0.2758,0.2606,0.2328,0.2328,0.1779,0.1774,0.1771]},{"header":{"parameterUnit":"m.s-1","parameterCategory":2,"la1":30.2991,"la2":30.254,"lo1":-89.0895,"lo2":-89.0444,"dy":0.0017,"dx":0.0017,"nx":28,"ny":28,"refTime":"2025-07-02T21:00:00:Z","depth":"0","parameterNumber":3,"parameterNumberName":"V-component_of_CURRENTS"},"data":[0,0,0,0,0,0,0,0,0,0,0,0,0,0,0,0,0,0,0,0,0,0,0,0,0,0,0,0,0,0,0,0,0,0,0,0,0,0,0,0,0,0,0,0,0,0,0,0,0,0,0,0,0,0,0,0,0,0,0.0044,0.0043,0,-0.0001,-0.0002,-0.0003,-0.0053,-0.0054,-0.0055,-0.0055,-0.0165,-0.0167,-0.017,0,0,0,0,0,0,0,0,0,0,0,0,0,0.0079,0.0079,0.0044,0.0043,0.0043,-0.0001,-0.0002,-0.0003,-0.0053,-0.0054,-0.0055,-0.0055,-0.0164,-0.0167,-0.017,0,0,0,0,0,0,0,0,0,0,0,0,0,0.005,0.0079,0.0044,0.0014,0.0011,-0.0001,-0.0002,-0.0003,-0.0053,-0.0054,-0.0055,-0.0056,-0.0163,-0.0167,-0.017,-0.0178,0,0,-0.0182,-0.0183,0,0,0,0,0,0,0,0,0.0051,0.0048,0.0019,0.0016,0.0013,-0.002,-0.0029,-0.0064,-0.0053,-0.0031,-0.0055,-0.0056,-0.012,-0.0128,-0.0137,-0.0183,-0.0187,-0.0182,-0.0184,-0.0186,-0.0187,0,0,0,0,0,0,0,0.0054,0.005,0.0023,0.0019,0.0015,0.0002,-0.0004,-0.0036,-0.0074,-0.0033,-0.0037,-0.0037,-0.0123,-0.0133,-0.014,-0.0189,-0.0182,-0.0185,-0.0187,-0.0189,-0.0234,-0.0233,0,0,0,0,0,0,0.0066,0.0052,0.0025,0.0022,0.0034,0.0002,-0.0004,-0.0011,-0.0073,-0.0081,-0.0036,-0.0039,-0.0127,-0.0136,-0.0144,-0.0133,-0.0186,-0.0189,-0.0191,-0.0235,-0.0234,-0.0233,0,0,0,0,0,0,0.0066,0.0063,0.0027,0.0038,0.0033,0.0002,-0.0005,-0.0011,-0.0021,-0.0074,-0.0085,-0.0039,-0.0128,-0.0139,-0.0166,-0.0138,-0.0191,-0.0194,-0.0236,-0.0235,-0.0233,-0.0125,0,0,0,0,0,0,0.0067,0.0064,0.0058,0.0039,0.0033,0.0022,-0.0004,-0.0011,-0.0019,-0.0023,-0.008,-0.0091,-0.0129,-0.016,-0.0169,-0.0144,-0.0197,-0.0237,-0.0235,-0.0234,-0.013,-0.012,-0.0111,0,0,0,0,0,0.0069,0.0058,0.0058,0.0055,0.0028,0.0023,0.0018,-0.0008,-0.0018,-0.002,-0.0053,-0.0089,-0.0154,-0.0162,-0.0173,-0.0149,-0.0238,-0.0236,-0.0234,-0.0134,-0.0122,-0.0111,0,0,0,0,0,0,0.0056,0.0052,0.0051,0.0036,0.0036,0.0015,0.0005,-0.0,-0.0026,-0.0035,-0.0081,-0.0094,-0.0105,-0.0144,-0.015,-0.0156,-0.02,-0.02,-0.012,-0.011,-0.01,-0.0087,-0.02,0,0,0,0,0,0.0058,0.0057,0.0053,0.0043,0.0042,0.003,0.0023,0.0013,-0.0008,-0.002,-0.0051,-0.0085,-0.0103,-0.012,-0.015,-0.0157,-0.0179,-0.0148,-0.0139,-0.0131,-0.0127,-0.0124,-0.0114,-0.0225,-0.0225,-0.0225,0,0,0.005,0.0049,0.0045,0.0042,0.0034,0.0046,0.0022,0.0016,0.0033,-0.0029,-0.0028,-0.0057,-0.0098,-0.0102,-0.011,-0.0132,-0.0109,-0.0128,-0.012,-0.0122,-0.012,-0.0109,-0.01,-0.0224,-0.0224,-0.0224,0,0,0.0041,0.0034,0.0036,0.0043,0.0046,0.0048,0.0054,0.0046,0.0045,0.0047,0.0016,0.0009,-0.0033,-0.0042,-0.0055,-0.0014,-0.006,-0.0029,0.0028,0.0032,0.0042,0.005,0.0046,0.0052,-0.0024,-0.0024,-0.0024,0,0.0031,0.0039,0.0035,0.0046,0.0058,0.0058,0.0074,0.008,0.0069,0.0079,0.0055,0.0038,0.0002,0.0022,0.0034,0.0009,-0.0006,-0.0007,0.0046,0.0054,0.006,0.0053,0.0059,-0.0018,-0.0019,-0.002,-0.002,0,0.0035,0.0046,0.0046,0.0072,0.0084,0.0095,0.0116,0.0131,0.0136,0.0144,0.0162,0.013,0.0118,0.0116,0.0083,0.0119,0.0088,0.0061,0.0023,0.0078,0.0067,0.0072,-0.001,-0.0012,-0.0014,-0.0015,0,0,0.0007,0.0043,0.0046,0.0073,0.0103,0.0116,0.0155,0.0192,0.0224,0.0226,0.0268,0.0252,0.0238,0.0223,0.0197,0.0203,0.0238,0.0152,0.015,0.0157,0.0241,0.0212,0.0213,0.0218,0.0219,0.022,0.0219,0,0.0016,0.0051,0.0068,0.0115,0.0142,0.0167,0.0206,0.0241,0.0265,0.0305,0.0309,0.0324,0.0281,0.028,0.0285,0.0251,0.0253,0.024,0.0178,0.0176,0.0151,0.0219,0.0224,0.0222,0.0222,0.0223,0.0224,0,0.0023,0.0053,0.0094,0.0159,0.0171,0.02,0.0271,0.0303,0.0361,0.0377,0.0406,0.0402,0.0427,0.0375,0.0362,0.0354,0.0302,0.0274,0.0272,0.0209,0.0156,0.0164,0.0229,0.0127,0.023,0.0229,0.0229,0,0.0022,0.0077,0.0116,0.0136,0.02,0.0229,0.0266,0.0323,0.0367,0.0425,0.0465,0.0482,0.0504,0.0459,0.0404,0.0379,0.0384,0.0339,0.0267,0.0264,0.0237,0.023,0.0204,0.0321,0.0321,0.0321,0.0321,0,0.0033,0.0067,0.0121,0.0143,0.0206,0.024,0.0307,0.0345,0.0414,0.049,0.0498,0.057,0.0525,0.0526,0.0446,0.0386,0.0415,0.0293,0.0271,0.0275,0.0271,0.0152,0.0101,0.0321,0.0321,0.0321,0.0321,0,0.0023,0.0056,0.011,0.0178,0.0206,0.0248,0.0335,0.0394,0.0443,0.0549,0.0574,0.0646,0.0655,0.0596,0.0539,0.0449,0.0333,0.0341,0.0347,0.0325,0.0146,0.0102,0.0052,0.0034,0.0265,0.0264,0.0264,0,0.0022,0.0046,0.0126,0.0176,0.0209,0.0278,0.0342,0.0403,0.0479,0.061,0.0681,0.0724,0.0796,0.0709,0.0561,0.0429,0.0334,0.0315,0.0264,0.0154,0.0088,0.0054,0.0041,0.0274,0.0274,0.0273,0.0273,0,0.0029,0.005,0.0098,0.0199,0.0272,0.0359,0.0455,0.0523,0.0623,0.0724,0.0878,0.0942,0.0868,0.0782,0.0582,0.0468,0.0259,0.0302,0.0198,0.0108,0.0062,0.0028,0.0246,0.027,0.0271,0.0271,0.0271,0.0271,0.0037,0.0075,0.0148,0.025,0.0337,0.0466,0.0555,0.0676,0.082,0.1,0.1025,0.114,0.095,0.0704,0.0542,0.0214,0.0233,0.0109,0.0069,0.0047,0.0018,0.0225,0.0213,0.0213,0.0213,0.0213,0.0213,0,0.0076,0.0132,0.0214,0.0348,0.0463,0.0501,0.0662,0.0772,0.0971,0.1106,0.1232,0.1186,0.0946,0.0661,0.0232,0.0023,-0.0042,-0.0094,-0.0139,-0.0137,0.0054,0.004,-0.002,-0.002,-0.002,-0.0019,-0.0019,-0.0019,0.0106,0.0195,0.0248,0.0452,0.0551,0.0712,0.0817,0.0971,0.1092,0.1271,0.1333,0.1364,0.1152,0.0395,-0.0095,-0.0201,-0.032,-0.0352,-0.04,-0.0288,-0.0273,-0.0258,-0.0283,-0.041,-0.0411,-0.056,-0.0562,-0.0563]}],[{"header":{"parameterUnit":"m.s-1","parameterCategory":2,"la1":30.2991,"la2":30.254,"lo1":-89.0895,"lo2":-89.0444,"dy":0.0017,"dx":0.0017,"nx":28,"ny":28,"refTime":"2025-07-02T21:00:00:Z","depth":"2","parameterNumber":2,"parameterNumberName":"U-component_of_CURRENTS"},"data":[0,0,0,0,0,0,0,0,0,0,0,0,0,0,0,0,0,0,0,0,0,0,0,0,0,0,0,0,0,0,0,0,0,0,0,0,0,0,0,0,0,0,0,0,0,0,0,0,0,0,0,0,0,0,0,0,0,0,0.1861,0.1861,0,0.1947,0.1948,0.195,0.205,0.2052,0.2053,0.2054,0.2168,0.217,0.2172,0,0,0,0,0,0,0,0,0,0,0,0,0,0.1841,0.1841,0.1861,0.1861,0.1862,0.1947,0.1948,0.195,0.205,0.2052,0.2053,0.2055,0.2168,0.217,0.2172,0,0,0,0,0,0,0,0,0,0,0,0,0,0.1883,0.1841,0.186,0.1921,0.1927,0.1947,0.1948,0.195,0.205,0.2052,0.2054,0.2056,0.2167,0.2169,0.2172,0.215,0,0,0.2181,0.2182,0,0,0,0,0,0,0,0,0.1881,0.1884,0.1911,0.1917,0.1923,0.1988,0.1983,0.2018,0.2049,0.2006,0.2054,0.2056,0.2107,0.2115,0.213,0.2155,0.216,0.2181,0.2182,0.2184,0.2184,0,0,0,0,0,0,0,0.1877,0.1881,0.1898,0.1912,0.1919,0.1964,0.1971,0.1991,0.2047,0.201,0.2017,0.2022,0.2112,0.2127,0.2134,0.2162,0.2181,0.2183,0.2185,0.2186,0.2313,0.2315,0,0,0,0,0,0,0.1856,0.1878,0.1895,0.19,0.1904,0.1962,0.1971,0.1967,0.2046,0.2059,0.202,0.2026,0.2122,0.213,0.2138,0.2246,0.2184,0.2186,0.2188,0.2312,0.2314,0.2316,0,0,0,0,0,0,0.1855,0.1856,0.1891,0.189,0.1897,0.1959,0.1955,0.1968,0.2005,0.2053,0.2068,0.2046,0.2124,0.2134,0.2187,0.2246,0.2187,0.219,0.231,0.2312,0.2315,0.2379,0,0,0,0,0,0,0.1854,0.1855,0.1875,0.1888,0.1896,0.1898,0.1953,0.1968,0.2002,0.2012,0.208,0.2091,0.2126,0.2183,0.219,0.2249,0.2192,0.2307,0.2311,0.2314,0.2375,0.2384,0.2391,0,0,0,0,0,0.1853,0.1855,0.1875,0.1879,0.1911,0.1896,0.1905,0.1958,0.2002,0.2003,0.2074,0.209,0.221,0.2186,0.2194,0.2255,0.2306,0.231,0.2314,0.2371,0.2382,0.2391,0,0,0,0,0,0,0.1841,0.1866,0.1888,0.1895,0.1895,0.1913,0.193,0.196,0.2016,0.2049,0.2098,0.2114,0.2187,0.2199,0.2172,0.2301,0.2265,0.2271,0.2307,0.2317,0.2325,0.2274,0.2194,0,0,0,0,0,0.1848,0.1864,0.1872,0.1872,0.1875,0.1905,0.192,0.1951,0.1987,0.2016,0.208,0.2148,0.2203,0.2241,0.2282,0.2338,0.2332,0.2387,0.2395,0.2402,0.2366,0.245,0.2463,0.2329,0.2329,0.2328,0,0,0.1836,0.1855,0.1862,0.1873,0.1885,0.1893,0.1919,0.1934,0.1951,0.2017,0.2093,0.2169,0.2219,0.2301,0.2336,0.2325,0.2433,0.2407,0.2413,0.2372,0.2456,0.2469,0.248,0.2331,0.2331,0.233,0,0,0.1826,0.1837,0.1862,0.1869,0.1895,0.1894,0.1896,0.1938,0.1968,0.2021,0.2104,0.2194,0.2273,0.234,0.2374,0.2436,0.2465,0.249,0.2504,0.2589,0.26,0.261,0.2596,0.2605,0.2506,0.2507,0.2507,0,0.1841,0.1852,0.1858,0.1887,0.1889,0.1892,0.1901,0.1915,0.1983,0.2013,0.2044,0.2218,0.2272,0.2373,0.2428,0.2451,0.2491,0.2468,0.2599,0.2609,0.2618,0.2602,0.2611,0.251,0.251,0.2509,0.2509,0,0.1818,0.1874,0.1872,0.1909,0.19,0.1899,0.1901,0.193,0.1968,0.2009,0.2112,0.2207,0.2311,0.2375,0.2425,0.2551,0.2552,0.2594,0.2572,0.2636,0.2614,0.2622,0.2515,0.2514,0.2513,0.2512,0,0,0.1802,0.1855,0.1886,0.1893,0.1916,0.1885,0.1906,0.1912,0.1939,0.2028,0.209,0.2221,0.2309,0.2352,0.2462,0.2554,0.2663,0.2629,0.2632,0.2607,0.2817,0.2697,0.2693,0.2781,0.2783,0.2785,0.2767,0,0.1812,0.1864,0.1885,0.19,0.19,0.1904,0.1911,0.1927,0.1959,0.2027,0.2119,0.2226,0.2286,0.2396,0.2489,0.2642,0.2692,0.2659,0.2762,0.2761,0.2645,0.2701,0.2461,0.2418,0.2774,0.2776,0.2776,0,0.1822,0.1846,0.1888,0.1889,0.1887,0.1894,0.1879,0.1896,0.1973,0.2022,0.2133,0.2222,0.2372,0.2422,0.2613,0.2619,0.2703,0.2784,0.2788,0.2648,0.2657,0.2418,0.2418,0.2788,0.2787,0.2787,0.2786,0,0.1802,0.1852,0.187,0.1876,0.1884,0.1891,0.188,0.1925,0.1953,0.2057,0.2131,0.226,0.2388,0.2506,0.2669,0.2683,0.2859,0.2881,0.2804,0.2793,0.2579,0.2546,0.2966,0.2966,0.2966,0.2966,0.2966,0,0.1812,0.1829,0.1865,0.1886,0.1869,0.1874,0.1891,0.1915,0.1996,0.2072,0.2162,0.2276,0.2445,0.2569,0.2665,0.2747,0.2841,0.2777,0.2794,0.2591,0.256,0.2878,0.2868,0.2965,0.2966,0.2966,0.2966,0,0.1815,0.186,0.1874,0.1892,0.1889,0.1883,0.1902,0.1917,0.2007,0.2122,0.2179,0.2333,0.2487,0.2578,0.2772,0.2743,0.2828,0.2827,0.2521,0.2501,0.2682,0.2676,0.2689,0.2685,0.2682,0.2679,0.2676,0,0.181,0.1834,0.1892,0.1887,0.1904,0.1895,0.1903,0.1948,0.1993,0.2174,0.2248,0.241,0.2511,0.2643,0.2612,0.2619,0.2789,0.2413,0.2364,0.2645,0.2661,0.2661,0.2659,0.2095,0.2088,0.2082,0.2077,0,0.1774,0.1837,0.1846,0.1906,0.1913,0.1884,0.1911,0.1944,0.2044,0.2136,0.2292,0.2379,0.2454,0.2362,0.2339,0.2326,0.2376,0.2293,0.2719,0.2203,0.2085,0.2101,0.2119,0.2026,0.2032,0.2035,0.2038,0.204,0.1747,0.1779,0.1869,0.1875,0.1887,0.1895,0.1874,0.1911,0.198,0.2077,0.2221,0.2245,0.2201,0.2025,0.1987,0.1915,0.2054,0.1976,0.1994,0.2018,0.1955,0.1838,0.1715,0.1718,0.172,0.1723,0.1725,0,0.1747,0.1805,0.1817,0.188,0.187,0.1896,0.1896,0.1846,0.1906,0.1945,0.2018,0.1792,0.17,0.1716,0.1491,0.1437,0.1429,0.1426,0.142,0.1468,0.1511,0.1424,0.1042,0.1041,0.104,0.1039,0,0,0.1764,0.1807,0.1833,0.1849,0.1879,0.1859,0.184,0.1762,0.1731,0.1647,0.1599,0.1625,0.1635,0.1327,0.1247,0.1147,0.1318,0.1093,0.1624,0.1664,0.1707,0.1787,0.1701,0,0,0,0,0]},{"header":{"parameterUnit":"m.s-1","parameterCategory":2,"la1":30.2991,"la2":30.254,"lo1":-89.0895,"lo2":-89.0444,"dy":0.0017,"dx":0.0017,"nx":28,"ny":28,"refTime":"2025-07-02T21:00:00:Z","depth":"2","parameterNumber":3,"parameterNumberName":"V-component_of_CURRENTS"},"data":[0,0,0,0,0,0,0,0,0,0,0,0,0,0,0,0,0,0,0,0,0,0,0,0,0,0,0,0,0,0,0,0,0,0,0,0,0,0,0,0,0,0,0,0,0,0,0,0,0,0,0,0,0,0,0,0,0,0,0.0006,0.0005,0,-0.0057,-0.0058,-0.0058,-0.0098,-0.0099,-0.0099,-0.0099,-0.0212,-0.0214,-0.0217,0,0,0,0,0,0,0,0,0,0,0,0,0,0.0089,0.0087,0.0006,0.0005,0.0004,-0.0057,-0.0058,-0.0058,-0.0098,-0.0099,-0.0099,-0.0099,-0.0211,-0.0214,-0.0217,0,0,0,0,0,0,0,0,0,0,0,0,0,0.0043,0.0087,0.0006,-0.0024,-0.0027,-0.0057,-0.0058,-0.0059,-0.0098,-0.0099,-0.0099,-0.01,-0.021,-0.0214,-0.0218,-0.0234,0,0,-0.023,-0.0232,0,0,0,0,0,0,0,0,0.0045,0.004,-0.0018,-0.0022,-0.0025,-0.0071,-0.007,-0.012,-0.0098,-0.007,-0.0099,-0.01,-0.0169,-0.0177,-0.0186,-0.0239,-0.0244,-0.023,-0.0233,-0.0235,-0.0236,0,0,0,0,0,0,0,0.0049,0.0042,-0.0018,-0.0019,-0.0024,-0.0035,-0.0042,-0.0079,-0.0117,-0.0073,-0.0076,-0.0084,-0.0171,-0.0182,-0.0189,-0.0245,-0.023,-0.0234,-0.0236,-0.0238,-0.0303,-0.0303,0,0,0,0,0,0,0.0055,0.0045,-0.0016,-0.002,0.0009,-0.0036,-0.0044,-0.0055,-0.0116,-0.0125,-0.0084,-0.0086,-0.0175,-0.0184,-0.0193,-0.0191,-0.0235,-0.0238,-0.0241,-0.0304,-0.0303,-0.0302,0,0,0,0,0,0,0.0057,0.005,-0.0014,0.0011,0.0002,-0.0037,-0.005,-0.0056,-0.0066,-0.0123,-0.0134,-0.0087,-0.0175,-0.0187,-0.0215,-0.0197,-0.024,-0.0244,-0.0305,-0.0304,-0.0303,-0.0203,0,0,0,0,0,0,0.006,0.0051,0.0043,0.0011,0.0001,-0.0023,-0.0049,-0.0057,-0.0071,-0.0074,-0.0129,-0.014,-0.0177,-0.0208,-0.0219,-0.0203,-0.0247,-0.0306,-0.0304,-0.0303,-0.0207,-0.0198,-0.0191,0,0,0,0,0,0.0063,0.0051,0.0043,0.0035,-0.0009,-0.0023,-0.0029,-0.0057,-0.007,-0.0069,-0.0102,-0.0138,-0.0208,-0.0211,-0.0224,-0.0208,-0.0306,-0.0305,-0.0303,-0.0211,-0.02,-0.0191,0,0,0,0,0,0,0.0075,0.0045,0.0035,0.0012,0.0001,-0.003,-0.0039,-0.0052,-0.0077,-0.0086,-0.0132,-0.0145,-0.0164,-0.02,-0.0203,-0.0224,-0.0262,-0.0263,-0.0188,-0.0178,-0.0171,-0.0149,-0.025,0,0,0,0,0,0.0077,0.0065,0.004,0.0025,0.0018,-0.0006,-0.0017,-0.0033,-0.0059,-0.007,-0.0103,-0.0141,-0.0167,-0.0183,-0.0219,-0.023,-0.0257,-0.0229,-0.0221,-0.0214,-0.0204,-0.0216,-0.0208,-0.0297,-0.0297,-0.0297,0,0,0.0075,0.0059,0.0049,0.0028,0.0013,0.0018,-0.0014,-0.0028,-0.0015,-0.008,-0.008,-0.012,-0.0166,-0.0176,-0.0187,-0.0203,-0.0203,-0.0212,-0.0205,-0.02,-0.0214,-0.0205,-0.0197,-0.0296,-0.0296,-0.0297,0,0,0.0079,0.0056,0.0054,0.0049,0.0032,0.0027,0.0029,0.0005,0.0002,-0.0006,-0.0042,-0.0063,-0.0111,-0.0126,-0.0142,-0.0113,-0.0164,-0.0132,-0.007,-0.0081,-0.0074,-0.0067,-0.0089,-0.0086,-0.0123,-0.0123,-0.0123,0,0.0072,0.0076,0.0053,0.0057,0.0061,0.004,0.0054,0.0052,0.0027,0.0038,0.0004,-0.0035,-0.0081,-0.0069,-0.0064,-0.0093,-0.0116,-0.0099,-0.0069,-0.0063,-0.0059,-0.0083,-0.008,-0.0118,-0.0118,-0.0119,-0.0119,0,0.0095,0.009,0.009,0.0097,0.0102,0.0106,0.0108,0.0119,0.0111,0.0109,0.0112,0.0058,0.0038,0.0021,-0.0018,0.0001,-0.0032,-0.0059,-0.0088,-0.0043,-0.0072,-0.0071,-0.0111,-0.0113,-0.0114,-0.0115,0,0,0.0079,0.0102,0.0095,0.0122,0.0125,0.0138,0.0169,0.0201,0.0238,0.0208,0.0253,0.02,0.0169,0.0148,0.0103,0.0092,0.0096,0.0033,0.003,0.0021,0.0063,0.0042,0.0041,0.0073,0.0074,0.0074,0.003,0,0.0101,0.0134,0.0136,0.0181,0.0206,0.0212,0.025,0.0276,0.029,0.0327,0.0295,0.0297,0.0221,0.0208,0.0189,0.0126,0.0103,0.011,0.0012,0.0009,-0.0006,0.0043,0.0022,-0.0019,0.003,0.003,0.0031,0,0.0118,0.0147,0.0188,0.025,0.026,0.0285,0.0361,0.0387,0.0432,0.0438,0.0442,0.0416,0.0403,0.0322,0.0248,0.0254,0.0161,0.0104,0.01,0.0048,-0.0009,-0.0058,-0.002,0.0032,0.0031,0.0031,0.0031,0,0.0138,0.0183,0.0228,0.0242,0.0301,0.0332,0.0367,0.0417,0.0458,0.0504,0.0536,0.0518,0.0502,0.0415,0.0289,0.0267,0.0202,0.0156,0.005,0.0047,-0.0007,-0.0015,0.009,0.009,0.009,0.009,0.009,0,0.0162,0.02,0.0244,0.0263,0.034,0.0362,0.0436,0.0472,0.0528,0.0595,0.0581,0.0631,0.052,0.0474,0.0344,0.0215,0.0239,0.0074,0.0043,0.0026,0.0022,0.0033,0.0027,0.0089,0.0089,0.0089,0.009,0,0.0173,0.0196,0.0252,0.0314,0.0342,0.0388,0.0467,0.053,0.0569,0.0659,0.0674,0.0709,0.0664,0.0546,0.0412,0.0282,0.0161,0.0092,0.0078,0.0047,-0.0004,-0.0005,-0.0011,-0.0012,-0.0012,-0.0013,-0.0013,0,0.0194,0.0217,0.0271,0.0318,0.0346,0.0419,0.0478,0.0533,0.0606,0.0716,0.0775,0.0773,0.0799,0.0617,0.0394,0.0187,0.0163,0.0017,-0.003,0.002,-0.001,-0.0009,-0.0009,-0.0069,-0.007,-0.0071,-0.0072,0,0.0234,0.0229,0.0271,0.0345,0.041,0.0499,0.059,0.0661,0.0746,0.0832,0.0957,0.0988,0.0818,0.0628,0.0337,0.0193,0.0059,-0.0006,0.0063,-0.0035,-0.0037,-0.0066,-0.0063,-0.0078,-0.0078,-0.0077,-0.0077,-0.0077,0.0256,0.0283,0.0314,0.0409,0.0476,0.0593,0.0688,0.08,0.093,0.1057,0.1068,0.1076,0.0822,0.0453,0.0244,0.0014,0.0009,-0.0103,-0.01,-0.0096,-0.0089,-0.0092,-0.0143,-0.0143,-0.0143,-0.0143,-0.0142,0,0.029,0.0324,0.0397,0.0493,0.0585,0.0615,0.0777,0.0878,0.1053,0.1101,0.1168,0.0925,0.0703,0.0457,0.0088,-0.0129,-0.0138,-0.0168,-0.0154,-0.0148,-0.0142,-0.0136,-0.0203,-0.0203,-0.0203,-0.0203,0,0,0.0307,0.0376,0.0424,0.0587,0.066,0.0789,0.0898,0.1031,0.1096,0.1166,0.1121,0.1011,0.0709,0.0426,0.015,-0.002,-0.0024,-0.0045,0.0013,0.0065,0.0074,-0.0111,-0.0095,0,0,0,0,0]}],[{"header":{"parameterUnit":"m.s-1","parameterCategory":2,"la1":30.2991,"la2":30.254,"lo1":-89.0895,"lo2":-89.0444,"dy":0.0017,"dx":0.0017,"nx":28,"ny":28,"refTime":"2025-07-02T21:00:00:Z","depth":"4","parameterNumber":2,"parameterNumberName":"U-component_of_CURRENTS"},"data":[0,0,0,0,0,0,0,0,0,0,0,0,0,0,0,0,0,0,0,0,0,0,0,0,0,0,0,0,0,0,0,0,0,0,0,0,0,0,0,0,0,0,0,0,0,0,0,0,0,0,0,0,0,0,0,0,0,0,-0.0292,-0.0292,0,-0.0264,-0.0264,-0.0263,-0.0203,-0.0202,-0.0201,-0.02,-0.016,-0.016,-0.016,0,0,0,0,0,0,0,0,0,0,0,0,0,-0.0263,-0.0264,-0.0292,-0.0292,-0.0291,-0.0264,-0.0264,-0.0263,-0.0203,-0.0202,-0.02,-0.0199,-0.016,-0.016,-0.016,0,0,0,0,0,0,0,0,0,0,0,0,0,-0.0258,-0.0264,-0.0292,-0.026,-0.0257,-0.0264,-0.0264,-0.0263,-0.0203,-0.0202,-0.02,-0.0199,-0.016,-0.016,-0.016,-0.019,0,0,-0.0159,-0.0159,0,0,0,0,0,0,0,0,-0.0258,-0.0259,-0.0265,-0.0262,-0.0259,-0.0237,-0.0239,-0.0239,-0.0204,-0.0221,-0.02,-0.0198,-0.0187,-0.0185,-0.018,-0.0189,-0.0187,-0.0159,-0.0159,-0.0159,-0.0159,0,0,0,0,0,0,0,-0.0259,-0.0259,-0.0279,-0.0265,-0.0261,-0.0237,-0.0234,-0.0238,-0.0212,-0.022,-0.0216,-0.0216,-0.0185,-0.018,-0.0179,-0.0186,-0.0159,-0.0159,-0.0159,-0.0159,-0.0136,-0.0135,0,0,0,0,0,0,-0.027,-0.026,-0.028,-0.0278,-0.0257,-0.0239,-0.0236,-0.0244,-0.0212,-0.0206,-0.0218,-0.0214,-0.0181,-0.0179,-0.0177,-0.0117,-0.0159,-0.0159,-0.0159,-0.0137,-0.0136,-0.0135,0,0,0,0,0,0,-0.0269,-0.0272,-0.0281,-0.0269,-0.0269,-0.0241,-0.0251,-0.0244,-0.0207,-0.0211,-0.0204,-0.0184,-0.018,-0.0177,-0.015,-0.0118,-0.0159,-0.0159,-0.0137,-0.0136,-0.0136,-0.0057,0,0,0,0,0,0,-0.0269,-0.0272,-0.028,-0.0271,-0.027,-0.0263,-0.0252,-0.0245,-0.0213,-0.0206,-0.018,-0.0177,-0.0179,-0.0151,-0.015,-0.0119,-0.0159,-0.0138,-0.0137,-0.0136,-0.006,-0.0053,-0.0047,0,0,0,0,0,-0.0268,-0.0277,-0.0281,-0.0283,-0.0283,-0.0263,-0.0259,-0.0233,-0.0213,-0.0193,-0.0173,-0.0176,-0.0144,-0.015,-0.015,-0.0117,-0.0138,-0.0137,-0.0136,-0.0063,-0.0054,-0.0048,0,0,0,0,0,0,-0.0261,-0.0272,-0.0276,-0.0287,-0.027,-0.0252,-0.0239,-0.0219,-0.0188,-0.0172,-0.0169,-0.0164,-0.013,-0.0142,-0.0149,-0.0111,-0.0142,-0.0141,-0.0087,-0.0079,-0.0073,-0.0044,-0.0159,0,0,0,0,0,-0.027,-0.0279,-0.0278,-0.0281,-0.0275,-0.0253,-0.0241,-0.0216,-0.0192,-0.0174,-0.0151,-0.0138,-0.0134,-0.0118,-0.0117,-0.0096,-0.0121,-0.0077,-0.0071,-0.0065,-0.0044,-0.0069,-0.0063,-0.0131,-0.0131,-0.0131,0,0,-0.0269,-0.0275,-0.028,-0.028,-0.0267,-0.0235,-0.0239,-0.0205,-0.016,-0.0179,-0.0106,-0.0114,-0.0125,-0.0096,-0.0082,-0.0094,-0.0062,-0.0064,-0.0059,-0.004,-0.0067,-0.0061,-0.0055,-0.013,-0.0131,-0.0131,0,0,-0.0255,-0.0274,-0.027,-0.0249,-0.0226,-0.021,-0.0192,-0.0155,-0.0121,-0.0072,-0.0076,-0.0063,-0.0038,-0.004,-0.0043,-0.0007,-0.0033,-0.0004,0.0062,0.0037,0.0043,0.0048,0.0016,0.0018,0.0006,0.0006,0.0006,0,-0.025,-0.0239,-0.026,-0.0232,-0.0198,-0.019,-0.0141,-0.0118,-0.0065,-0.0032,-0.0033,0.0002,-0.0012,0.0013,0.0031,0.001,-0.0007,0.0038,0.0047,0.0051,0.0054,0.0021,0.0022,0.001,0.0009,0.0009,0.0008,0,-0.0223,-0.0199,-0.0185,-0.0151,-0.0124,-0.0076,-0.0047,-0.0003,0.0035,0.0064,0.0112,0.0089,0.0116,0.0102,0.0084,0.0107,0.0084,0.0053,0.0032,0.0066,0.0028,0.0028,0.0015,0.0014,0.0013,0.0012,0,0,-0.0236,-0.0178,-0.0169,-0.012,-0.0063,-0.0031,0.0035,0.0098,0.0155,0.0186,0.0251,0.0245,0.0242,0.0237,0.0205,0.0183,0.0179,0.0146,0.0142,0.0123,0.0129,0.0132,0.0131,0.0156,0.0157,0.0157,0.0089,0,-0.0193,-0.0123,-0.0101,-0.0001,0.0051,0.0092,0.0153,0.021,0.0253,0.0311,0.0291,0.0333,0.0289,0.0304,0.0279,0.0204,0.0183,0.0201,0.0092,0.0088,0.0094,0.0132,0.0159,0.0088,0.0088,0.0088,0.0088,0,-0.017,-0.0113,-0.0015,0.0097,0.0122,0.0188,0.0297,0.0353,0.0412,0.0446,0.0478,0.0465,0.0455,0.04,0.0313,0.0332,0.0254,0.0182,0.0177,0.0159,0.0092,0.0046,0.0085,0.0086,0.0086,0.0086,0.0086,0,-0.0167,-0.0054,0.0036,0.0078,0.0195,0.0265,0.0329,0.0407,0.0458,0.0537,0.0565,0.0568,0.0552,0.0474,0.0327,0.034,0.0195,0.0186,0.0112,0.011,0.009,0.0085,0.0128,0.0128,0.0128,0.0128,0.0128,0,-0.0131,-0.0065,0.0057,0.0111,0.0233,0.0307,0.0421,0.0483,0.0561,0.0585,0.0637,0.0588,0.057,0.0473,0.0358,0.0225,0.0218,0.0143,0.0104,0.0122,0.0122,0.0088,0.0085,0.0126,0.0126,0.0127,0.0127,0,-0.0154,-0.0078,0.0028,0.0181,0.0236,0.0321,0.046,0.0514,0.0606,0.0631,0.0656,0.0628,0.0512,0.0452,0.0297,0.0258,0.0126,0.0066,0.0083,0.0042,0.0061,0.0062,0.0049,0.0048,0.0048,0.0048,0.0048,0,-0.0151,-0.0103,0.0057,0.0123,0.0204,0.0335,0.0402,0.0525,0.0553,0.0569,0.0536,0.0497,0.045,0.0284,0.018,0.0068,0.0031,0.0026,0.0085,0.0096,0.0058,0.0059,0.0061,0.0048,0.0048,0.0048,0.0048,0,-0.0153,-0.0113,-0.0034,0.0096,0.0196,0.029,0.0384,0.0402,0.048,0.0561,0.0493,0.0459,0.0332,0.0238,0.0191,0.0053,0.0088,0.0025,0.0026,0.0082,0.0094,0.0057,0.0059,0.0047,0.0047,0.0047,0.0047,0,-0.0173,-0.014,-0.0052,0.0068,0.0168,0.0215,0.0275,0.0324,0.0387,0.0452,0.0356,0.0293,0.0288,0.021,0.0067,0.0064,0.0076,0.0123,0.0119,0.0119,0.0168,0.0196,0.0165,0,0,0,0,0,-0.0173,-0.0158,-0.0081,0.003,0.0113,0.0182,0.0244,0.0284,0.0334,0.0329,0.04,0.0285,0.0218,0.0113,0.0118,-0.0002,0.0008,-0.0002,0.0046,0.0044,0.0045,0.0092,0,0,0,0,0,0,-0.0191,-0.0141,-0.0106,-0.0025,0.0042,0.0119,0.0156,0.0181,0.0199,0.0262,0.0212,0.0318,0.0207,0.0242,0.0128,0.0111,0.0151,-0.0012,-0.0011,0.0044,0.0044,0.0045,0.0094,0,0,0,0,0]},{"header":{"parameterUnit":"m.s-1","parameterCategory":2,"la1":30.2991,"la2":30.254,"lo1":-89.0895,"lo2":-89.0444,"dy":0.0017,"dx":0.0017,"nx":28,"ny":28,"refTime":"2025-07-02T21:00:00:Z","depth":"4","parameterNumber":3,"parameterNumberName":"V-component_of_CURRENTS"},"data":[0,0,0,0,0,0,0,0,0,0,0,0,0,0,0,0,0,0,0,0,0,0,0,0,0,0,0,0,0,0,0,0,0,0,0,0,0,0,0,0,0,0,0,0,0,0,0,0,0,0,0,0,0,0,0,0,0,0,0.0582,0.0583,0,0.0569,0.0568,0.0567,0.0525,0.0525,0.0525,0.0525,0.0441,0.0439,0.0437,0,0,0,0,0,0,0,0,0,0,0,0,0,0.0524,0.0525,0.0582,0.0583,0.0584,0.0569,0.0568,0.0567,0.0525,0.0525,0.0525,0.0525,0.0442,0.0439,0.0437,0,0,0,0,0,0,0,0,0,0,0,0,0,0.0524,0.0525,0.0582,0.0568,0.0568,0.057,0.0568,0.0567,0.0525,0.0525,0.0525,0.0525,0.0443,0.0439,0.0436,0.0416,0,0,0.0426,0.0425,0,0,0,0,0,0,0,0,0.0524,0.0525,0.0569,0.0569,0.0569,0.0558,0.0518,0.0516,0.0525,0.053,0.0525,0.0525,0.048,0.0474,0.0458,0.0412,0.0408,0.0426,0.0424,0.0422,0.0421,0,0,0,0,0,0,0,0.0524,0.0525,0.0566,0.0571,0.057,0.0548,0.0547,0.0516,0.0496,0.053,0.0529,0.0544,0.0478,0.0461,0.0455,0.0407,0.0426,0.0423,0.0421,0.0419,0.0253,0.025,0,0,0,0,0,0,0.0549,0.0526,0.0567,0.0567,0.0558,0.055,0.0549,0.0553,0.0498,0.0493,0.0544,0.0542,0.0467,0.0459,0.0452,0.0371,0.0422,0.0419,0.0417,0.0255,0.0252,0.0249,0,0,0,0,0,0,0.0548,0.0553,0.0568,0.0555,0.0556,0.0553,0.0556,0.0553,0.0538,0.0512,0.0503,0.0535,0.0466,0.0457,0.0397,0.037,0.0418,0.0415,0.0258,0.0254,0.0251,0.0243,0,0,0,0,0,0,0.0546,0.0552,0.0587,0.0556,0.0559,0.0576,0.0558,0.0553,0.0552,0.0549,0.0501,0.0493,0.0466,0.0402,0.0394,0.0366,0.0412,0.0261,0.0256,0.0252,0.0246,0.0239,0.0233,0,0,0,0,0,0.0544,0.057,0.0588,0.0596,0.0599,0.0578,0.0575,0.0565,0.0552,0.0549,0.0491,0.0495,0.0367,0.0398,0.0389,0.0359,0.0263,0.0257,0.0252,0.0249,0.024,0.0233,0,0,0,0,0,0,0.0548,0.0569,0.0588,0.0618,0.0613,0.0575,0.0598,0.0568,0.0521,0.0516,0.0469,0.0456,0.0387,0.0371,0.0406,0.0292,0.0314,0.0306,0.0314,0.0306,0.03,0.031,0.0409,0,0,0,0,0,0.0576,0.0601,0.0607,0.0627,0.0647,0.0623,0.0623,0.0597,0.0551,0.0532,0.0479,0.042,0.0357,0.0333,0.0278,0.023,0.0215,0.02,0.0194,0.0189,0.0186,0.0126,0.0115,0.0231,0.0231,0.0231,0,0,0.0582,0.0598,0.0614,0.0633,0.0641,0.063,0.0619,0.0613,0.0563,0.053,0.0448,0.0397,0.0335,0.0263,0.0232,0.0251,0.0147,0.0182,0.0178,0.0179,0.0119,0.0108,0.0099,0.0228,0.0228,0.0229,0,0,0.0585,0.0631,0.0659,0.0659,0.0678,0.0649,0.0648,0.0603,0.0565,0.0486,0.0433,0.036,0.0277,0.0213,0.0175,0.0103,0.0109,0.0091,0.0078,0.0019,0.001,0.0002,-0.0021,-0.0031,0.0097,0.0097,0.0097,0,0.0595,0.0627,0.0657,0.0673,0.0668,0.0654,0.0641,0.0597,0.0512,0.0465,0.046,0.0287,0.0245,0.0138,0.011,0.0089,0.0076,0.012,0.0015,0.0006,-0.0002,-0.0024,-0.0035,0.0096,0.0096,0.0096,0.0096,0,0.0599,0.0641,0.0655,0.0666,0.0653,0.0644,0.0599,0.055,0.0495,0.0432,0.0317,0.024,0.0147,0.0112,0.0092,0.0001,0.0018,0.0012,0.0045,-0.0014,-0.0034,-0.0045,0.0094,0.0094,0.0095,0.0095,0,0,0.0576,0.0647,0.0658,0.0672,0.0648,0.0626,0.0556,0.0483,0.0429,0.0336,0.0243,0.0126,0.0101,0.0054,0.0014,-0.004,-0.0106,-0.0027,-0.003,-0.0029,-0.0205,-0.0151,-0.0158,-0.012,-0.0122,-0.0124,-0.0189,0,0.0575,0.0616,0.0625,0.0615,0.0631,0.0587,0.0522,0.0441,0.0366,0.0272,0.0179,0.0098,0.0076,0.005,-0.002,-0.01,-0.0138,-0.0086,-0.0166,-0.0169,-0.0096,-0.0171,-0.0132,-0.0198,-0.02,-0.0202,-0.0204,0,0.0578,0.0605,0.0633,0.0612,0.0614,0.0597,0.0499,0.0438,0.0315,0.0262,0.0164,0.0092,-0.0021,-0.0009,-0.0164,-0.0124,-0.0155,-0.0205,-0.0209,-0.0163,-0.0136,-0.0134,-0.0224,-0.0223,-0.0221,-0.022,-0.0218,0,0.0561,0.0594,0.062,0.0619,0.0599,0.059,0.0559,0.0453,0.0409,0.029,0.0235,0.0084,0.0019,-0.0075,-0.0181,-0.0167,-0.0335,-0.0329,-0.0309,-0.0304,-0.0324,-0.0314,-0.0411,-0.0411,-0.0411,-0.0411,-0.0411,0,0.0532,0.0568,0.0647,0.0663,0.0672,0.0635,0.0616,0.0555,0.0475,0.0386,0.0273,0.0149,0.0002,-0.0127,-0.0198,-0.0295,-0.0344,-0.0325,-0.0331,-0.0325,-0.0316,-0.0331,-0.032,-0.0413,-0.0413,-0.0412,-0.0412,0,0.0524,0.0581,0.0637,0.0671,0.0694,0.0711,0.0719,0.0676,0.0607,0.0488,0.0457,0.0215,0.0037,-0.0088,-0.0262,-0.0303,-0.0401,-0.0403,-0.0375,-0.0375,-0.0322,-0.0312,-0.0405,-0.0404,-0.0403,-0.0402,-0.0402,0,0.0512,0.0561,0.0682,0.0744,0.0794,0.0833,0.0838,0.0778,0.0699,0.0483,0.0383,0.0208,0.0042,-0.0165,-0.0291,-0.0386,-0.0382,-0.0411,-0.0385,-0.0332,-0.0329,-0.032,-0.0311,-0.04,-0.04,-0.04,-0.04,0,0.0497,0.0597,0.0644,0.0805,0.0873,0.0887,0.0872,0.0783,0.0626,0.061,0.0331,0.0184,-0.0017,-0.0192,-0.023,-0.0319,-0.0398,-0.0402,-0.0404,-0.0379,-0.0328,-0.0323,-0.0315,-0.0396,-0.0397,-0.0397,-0.0397,0,0.0507,0.0566,0.0698,0.0798,0.093,0.0884,0.0837,0.071,0.0629,0.0373,0.0273,0.0065,-0.0039,-0.0161,-0.0248,-0.0276,-0.0283,-0.0287,-0.0296,-0.03,-0.0241,-0.0158,-0.0195,0,0,0,0,0,0.0521,0.0582,0.0675,0.076,0.0896,0.0966,0.0839,0.0738,0.0549,0.039,0.0344,0.0163,-0.0005,-0.0138,-0.0151,-0.024,-0.0299,-0.0259,-0.031,-0.0379,-0.0383,-0.0326,0,0,0,0,0,0,0.0534,0.0644,0.0651,0.074,0.0822,0.0893,0.0811,0.0643,0.0511,0.0359,0.0262,0.0259,0.0089,0.0096,-0.0092,-0.0118,-0.0146,-0.0314,-0.0314,-0.0377,-0.038,-0.0383,-0.0326,0,0,0,0,0]}]]